Flint, MI

5:04 AM EDT on April 21, 2018 (GMT -0400)
Bishop International

Weather History for KFNT - January, 2014

Change the Weather History Date:

Monday, January 13, 2014

  Actual Average Record
Temperature  
Mean Temperature 40 °F 22 °F  
Max Temperature 45 °F 29 °F 60 °F (1950)
Min Temperature 35 °F 15 °F -9 °F (2015)
Degree Days  
Heating Degree Days 25 43  
Month to date heating degree days 619 548  
Since 1 July heating degree days 3249 3193  
Cooling Degree Days 0 0  
Month to date cooling degree days 0 0  
Year to date cooling degree days 0 0  
Moisture  
Dew Point 30 °F    
Average Humidity 70    
Maximum Humidity 82    
Minimum Humidity 57    
Precipitation  
Precipitation 0.00 in 0.06 in 0.83 in (2006)
Month to date precipitation 1.86 0.75  
Year to date precipitation 1.86 0.75  
Snow  
Snow 0.00 in 0.40 in 10.40 in (1979)
Month to date snowfall 20.4 5.5  
Since 1 July snowfall 38.9 20.2  
Snow Depth 4.00 in    
Sea Level Pressure  
Sea Level Pressure 29.62 in    
Wind  
Wind Speed 10 mph (SW)    
Max Wind Speed 16 mph    
Max Gust Speed 22 mph    
Visibility 10 miles    
Events      
T = Trace of Precipitation, MM = Missing Value Source: NWS Daily Summary

Daily Weather History Graph

Daily Weather History Graph

Search for Another Location

Airport or City:

Astronomy

Jan. 13, 2014 Rise Set
Actual Time 8:04 AM EST 5:23 PM EST
Civil Twilight 7:32 AM EST 5:55 PM EST
Nautical Twilight 6:57 AM EST 6:30 PM EST
Astronomical Twilight 6:23 AM EST 7:04 PM EST
Moon 3:38 PM EST (1/13) 5:51 AM EST (1/13)
Length of Visible Light 10h 22m
Length of Day
9h 19m
Waxing Gibbous, 95% of the Moon is Illuminated
Jan 13
Waxing Gibbous
Jan 15
Full
Jan 24
Last Quarter
Jan 30
New
Feb 6
First Quarter

Hourly Weather History & Observations

Time (EST) Temp. Windchill Dew Point Humidity Pressure Visibility Wind Dir Wind Speed Gust Speed Precip Events Conditions
12:53 AM 39.9 °F 32.5 °F 28.0 °F 63% 29.70 in 10.0 mi South 12.7 mph - N/A   Clear
1:53 AM 39.9 °F 33.4 °F 28.0 °F 63% 29.69 in 10.0 mi SSW 10.4 mph - N/A   Clear
2:53 AM 39.9 °F 33.9 °F 28.9 °F 65% 29.69 in 10.0 mi South 9.2 mph - N/A   Clear
3:53 AM 39.9 °F 33.4 °F 28.9 °F 65% 29.67 in 10.0 mi South 10.4 mph - N/A   Clear
4:53 AM 39.9 °F 32.9 °F 28.9 °F 65% 29.64 in 10.0 mi SSW 11.5 mph 18.4 mph N/A   Clear
5:53 AM 42.1 °F 35.7 °F 28.9 °F 60% 29.63 in 10.0 mi SSW 11.5 mph 19.6 mph N/A   Clear
6:53 AM 42.1 °F 35.2 °F 28.9 °F 60% 29.62 in 10.0 mi SSW 12.7 mph - N/A   Clear
7:53 AM 41.0 °F 34.7 °F 28.9 °F 62% 29.62 in 10.0 mi South 10.4 mph - N/A   Clear
8:53 AM 42.1 °F 37.1 °F 28.9 °F 60% 29.62 in 10.0 mi SSW 8.1 mph - N/A   Clear
9:53 AM 43.0 °F 37.2 °F 30.0 °F 60% 29.60 in 10.0 mi SSW 10.4 mph 18.4 mph N/A   Clear
10:53 AM 44.1 °F 39.0 °F 30.0 °F 58% 29.61 in 10.0 mi SSW 9.2 mph - N/A   Clear
11:53 AM 45.0 °F 39.7 °F 30.9 °F 58% 29.58 in 10.0 mi SSW 10.4 mph - N/A   Scattered Clouds
12:53 PM 45.0 °F 40.6 °F 30.9 °F 58% 29.56 in 10.0 mi SSW 8.1 mph - N/A   Mostly Cloudy
1:53 PM 45.0 °F 39.7 °F 30.9 °F 58% 29.54 in 10.0 mi SSW 10.4 mph - N/A   Overcast
2:53 PM 45.0 °F 40.1 °F 32.0 °F 60% 29.54 in 10.0 mi SSW 9.2 mph - N/A   Overcast
3:53 PM 44.1 °F 40.1 °F 32.0 °F 63% 29.56 in 10.0 mi SW 6.9 mph - N/A   Overcast
4:53 PM 44.1 °F 39.5 °F 33.1 °F 65% 29.57 in 10.0 mi SW 8.1 mph - N/A   Overcast
5:53 PM 42.1 °F 37.7 °F 33.1 °F 70% 29.59 in 10.0 mi SW 6.9 mph - N/A   Mostly Cloudy
6:53 PM 42.1 °F 38.4 °F 33.1 °F 70% 29.60 in 10.0 mi SW 5.8 mph - N/A   Mostly Cloudy
7:53 PM 41.0 °F 35.8 °F 33.1 °F 73% 29.62 in 10.0 mi SW 8.1 mph - N/A   Clear
8:53 PM 39.9 °F 34.5 °F 32.0 °F 73% 29.63 in 10.0 mi WSW 8.1 mph - N/A   Clear
9:53 PM 37.9 °F 29.6 °F 30.9 °F 76% 29.65 in 10.0 mi West 13.8 mph - N/A   Clear
10:53 PM 36.0 °F 29.6 °F 30.0 °F 79% 29.66 in 9.0 mi West 8.1 mph - N/A   Partly Cloudy
11:08 PM 37.4 °F 30.8 °F 30.2 °F 75% 29.65 in 8.0 mi West 9.2 mph - N/A   Mostly Cloudy
11:43 PM 35.6 °F 28.0 °F 30.2 °F 81% 29.65 in 7.0 mi West 10.4 mph - N/A   Partly Cloudy
11:53 PM 35.1 °F 28.6 °F 30.0 °F 82% 29.67 in 7.0 mi West 8.1 mph - N/A   Scattered Clouds